This is the latest recevied weather packets stored in our database for station/object K0CVS. If no packets are shown the sender has not sent any weather packets the latest 10 day(s).
| Time | Temp. | Humidity | Pressure | Rain* | Wind** | Luminosity | Snow |
|---|---|---|---|---|---|---|---|
| 1777218752 | 21.67° C | 64% | 1010.6 hPa | 0 mm | - | 98 W/m² | - |
| 1777218447 | 21.67° C | 64% | 1010.7 hPa | 0 mm | - | 97 W/m² | - |
| 1777218144 | 21.67° C | 62% | 1010.4 hPa | 0 mm | - | 130 W/m² | - |
| 1777217841 | 21.11° C | 63% | 1010.6 hPa | 0 mm | - | 127 W/m² | - |
| 1777217535 | 21.11° C | 63% | 1010.8 hPa | 0 mm | - | 197 W/m² | - |
| 1777217232 | 21.11° C | 64% | 1010.5 hPa | 0 mm | - | 60 W/m² | - |
| 1777216929 | 20.56° C | 65% | 1010.5 hPa | 0 mm | - | 106 W/m² | - |
| 1777216625 | 20° C | 66% | 1010.6 hPa | 0 mm | - | 109 W/m² | - |
| 1777216321 | 20° C | 65% | 1010.6 hPa | 0 mm | - | 111 W/m² | - |
| 1777216020 | 20° C | 66% | 1010.5 hPa | 0 mm | - | 119 W/m² | - |
| 1777215715 | 20° C | 66% | 1010.5 hPa | 0 mm | - | 126 W/m² | - |
| 1777215410 | 20° C | 66% | 1010.4 hPa | 0 mm | - | 118 W/m² | - |
| 1777215108 | 20° C | 66% | 1010.6 hPa | 0 mm | - | 135 W/m² | - |
| 1777214803 | 20° C | 67% | 1010.5 hPa | 0 mm | - | 116 W/m² | - |
| 1777214502 | 19.44° C | 66% | 1010.4 hPa | 0 mm | - | 117 W/m² | - |
| 1777214198 | 19.44° C | 67% | 1010.6 hPa | 0 mm | - | 120 W/m² | - |
| 1777213897 | 20° C | 66% | 1010.9 hPa | 0 mm | - | 112 W/m² | - |
| 1777213592 | 20° C | 67% | 1010.8 hPa | 0 mm | - | 112 W/m² | - |
| 1777213289 | 19.44° C | 69% | 1011 hPa | 0 mm | - | 143 W/m² | - |
| 1777212985 | 18.89° C | 69% | 1011.1 hPa | 0 mm | - | 121 W/m² | - |
| 1777212683 | 18.89° C | 70% | 1011.2 hPa | 0 mm | - | 91 W/m² | - |
| 1777212382 | 18.33° C | 72% | 1011.2 hPa | 0 mm | - | 79 W/m² | - |
| 1777212078 | 18.33° C | 72% | 1011.2 hPa | 0 mm | - | 73 W/m² | - |
| 1777211774 | 17.78° C | 73% | 1011.4 hPa | 0 mm | - | 53 W/m² | - |
| 1777211472 | 17.78° C | 73% | 1011.1 hPa | 0 mm | - | 43 W/m² | - |
* Rain latest hour (hover to see other rain measurements)
** Current wind speed in m/s (hover to see current wind gust speed)